Terminal Aerodrome Forecast
Issued by NWS Billings, MT

Home | Current Version | Previous Version | Text Only | Print | Product List | Glossary On
Versions: 1 2 3 4 5 6 7 8 9 10 11 12 13 14 15 16 17 18 19 20 21 22 23 24 25 26 27 28 29 30 31 32 33 34 35
000
FTUS45 KBYZ 080534
TAFBIL
TAF
KBIL 080534Z 0806/0906 01008KT P6SM VCSH SCT070 BKN090
     FM080900 VRB05KT P6SM SCT060 BKN100
     FM081900 11007KT P6SM SCT070=

USA.gov is the U.S. government's official web portal to all federal, state and local government web resources and services.